Powrót do katalogu

STARLINK-30893

AktywnyŁącznośćVLEO
NORAD 58724·PAYLOAD·🇺🇸 United States

Wystrzelony Jan 3, 2024 z Vandenberg Space Force Base

Loading…

Następne Przeloty (najbliższe 24 godziny)

TLE

ŚwieżeSource: CelesTrak SupGP

Epoka: Sep 14, 2026, 21:43 UTC

1 58724C 24002V   26257.90534722  .00009399  00000+0  27770-3 0  2570
2 58724  53.1577  67.6436 0001037  88.4660 254.8164 15.34384057    12

Śledź STARLINK-30893 w czasie rzeczywistym z AllMySat

Download on the App Store